Location: São Paulo
(23.5507°S, 46.6334°W)
Time: 10:58:26
(UTC-03:00)

Explorer 7 - Pass Details

Date: 20 February 2026
Orbit: 430 x 541 km, 50.2° (Epoch: 11 March)

Event Time Altitude Azimuth Distance (km) Brightness Sun altitude
Rises 08:57:18 0° 210° (SSW) 2,532 9.9 40.2°
Reaches altitude 10° 08:59:44 10° 198° (SSW) 1,627 9.1 40.7°
Maximum altitude 09:02:56 28° 137° (SE) 888 8.7 41.4°
Drops below altitude 10° 09:06:01 10° 76° (ENE) 1,565 10.3 42.1°
Sets 09:08:18 0° 64° (ENE) 2,415 10.8 42.7°
